This demonstration page uses our WeatherBlox Daily Observations layout. Learn more.

Left ArrowRight Arrow

38.89511, -77.03637

Hourly Observations for May 21, 2018

Temp ( °F °C ) Dew Point ( °F °C ) Humidity (%) Winds ( mph kmh ) Pressure ( in mb ) Visibility ( mi km ) Precip ( " mm )
12:52 am 00:52 Clear 73 22.8 64 17.8 74 74 undefined N/A 30.07 1018 10 16 0.00 0.00
1:52 am 01:52 Mostly Cloudy 72 22.2 64 17.8 76 76 N 9 15 30.08 1019 10 16 0.00 0.00
2:52 am 02:52 Mostly Cloudy 73 22.8 61 16.1 66 66 NNE 10 17 30.09 1019 10 16 0.00 0.00
3:52 am 03:52 Mostly Cloudy 71 21.7 61 16.1 71 71 NE 15 24 30.11 1020 10 16 0.00 0.00
4:52 am 04:52 Mostly Cloudy 69 20.6 61 16.1 76 76 ENE 14 22 30.12 1020 10 16 0.00 0.00
5:52 am 05:52 Mostly Cloudy 69 20.6 60 15.6 73 73 NE 9 15 30.15 1021 10 16 0.00 0.00
6:52 am 06:52 Mostly Cloudy 68 20 60 15.6 76 76 ENE 12 19 30.17 1022 10 16 0.00 0.00
7:52 am 07:52 Mostly Cloudy 69 20.6 59 15 70 70 ENE 14 22 30.18 1022 10 16 0.00 0.00
8:52 am 08:52 Mostly Cloudy 71 21.7 59 15 66 66 NE 12 19 30.20 1023 10 16 0.00 0.00
9:52 am 09:52 Mostly Cloudy 73 22.8 58 14.4 59 59 ENE 9 15 30.21 1023 10 16 0.00 0.00
10:52 am 10:52 Mostly Cloudy 76 24.4 59 15 56 56 ENE 8 13 30.21 1023 10 16 0.00 0.00
11:52 am 11:52 Mostly Cloudy 77 25 57 13.9 50 50 Calm 30.20 1023 10 16 0.00 0.00
12:52 pm 12:52 Mostly Cloudy 80 26.7 59 15 49 49 NE 5 7 30.19 1022 10 16 0.00 0.00
1:52 pm 13:52 Mostly Cloudy 81 27.2 59 15 47 47 Calm 30.16 1022 10 16 0.00 0.00
2:52 pm 14:52 Mostly Cloudy 81 27.2 60 15.6 49 49 E 3 6 30.14 1021 10 16 0.00 0.00
3:52 pm 15:52 Mostly Cloudy 81 27.2 62 16.7 53 53 E 8 13 30.13 1020 10 16 0.00 0.00
4:52 pm 16:52 Mostly Cloudy 80 26.7 62 16.7 54 54 E 7 11 30.12 1020 10 16 0.00 0.00
5:52 pm 17:52 Mostly Cloudy 78 25.6 62 16.7 58 58 SE 13 20 30.13 1020 10 16 0.00 0.00
6:52 pm 18:52 Mostly Cloudy 76 24.4 61 16.1 60 60 SE 9 15 30.13 1020 10 16 0.00 0.00
7:52 pm 19:52 Mostly Cloudy 74 23.3 61 16.1 64 64 SE 8 13 30.13 1020 10 16 0.00 0.00
8:52 pm 20:52 Mostly Cloudy 71 21.7 63 17.2 76 76 S 3 6 30.14 1021 10 16 0.00 0.00
9:52 pm 21:52 Mostly Cloudy 71 21.7 62 16.7 73 73 S 9 15 30.15 1021 10 16 0.00 0.00
10:52 pm 22:52 Mostly Cloudy 69 20.6 60 15.6 73 73 S 10 17 30.15 1021 10 16 0.00 0.00
11:52 pm 23:52 Mostly Cloudy 68 20 59 15 73 73 S 7 11 30.16 1021 10 16 0.00 0.00

Powered by AerisWeather